Flag for Hong Kong Weather past 2 weeks in Kowloon, Hong Kong

Now
79 °F

Thunderstorms. Partly cloudy.


Feels Like: 82 °F
Forecast: 85 / 92 °F
Wind: 14 mph from Southeast

Location: National Airport

Current Time: Aug 1, 2014 at 9:57:08 PM

Latest Report: Aug 1, 2014 at 9:30 PM


Visibility: N/A

Pressure: 29.62 "Hg

Humidity: 89%

Dew point: 75 °F

Location of KowloonLocation

Historic Weather in Kowloon — Graph

°F

Kowloon temperature yesterday

Maximum temperature yesterday: 95 °F (at 3:00 PM)
Minimum temperature yesterday: 84 °F (at 5:30 AM)
Average temperature yesterday: 90 °F

Past Weeks' High & Low Weather Summary

 TemperatureHumidityPressure
High97 °F (Aug 1, 2:30 PM)94% (Jul 17, 8:00 PM)29.83 "Hg (Jul 17, 8:00 PM)
Low77 °F (Aug 1, 8:30 PM)46% (Jul 28, 6:30 PM)29.45 "Hg (Jul 23, 5:00 PM)
Average87 °F72%29.67 "Hg
* Reported Jul 17 8:00 PM — Aug 1 8:30 PM, Kowloon, Weather by CustomWeather, © 2014

Note: Actual official high and low records may vary slightly from our data, if they occured in-between our weather recording intervals... More about our weather records

Advertising

Kowloon weather history for previous 24 hours

 ConditionsComfort  
Time TempWeatherWind HumidityBarometerVisibility
8:30 PM
Aug 1
77 °FSleet. Overcast.44 mph94%29.59 "Hg1 mi
8:00 PM88 °FThunderstorms. Partly cloudy.15 mph66%29.56 "HgN/A
7:52 PM88 °FThunderstorms. Partly cloudy.15 mph66%29.53 "HgN/A
7:30 PM90 °FThunderstorms. Partly cloudy.7 mph71%29.50 "HgN/A
7:00 PM90 °FThundershowers. Scattered clouds.13 mph59%29.50 "HgN/A
6:53 PM91 °FThundershowers. Scattered clouds.14 mph59%29.47 "HgN/A
6:30 PM91 °FThundershowers. Scattered clouds.17 mph49%29.50 "HgN/A
6:00 PM93 °FScattered clouds.12 mph63%29.47 "HgN/A
5:30 PM93 °FPassing clouds.13 mph67%29.47 "HgN/A
5:00 PM95 °FPassing clouds.12 mph63%29.47 "HgN/A
4:30 PM95 °FPassing clouds.12 mph63%29.47 "HgN/A
4:00 PM97 °FPassing clouds.15 mph60%29.47 "HgN/A
3:30 PM97 °FPassing clouds.15 mph56%29.47 "HgN/A
3:00 PM95 °FPassing clouds.14 mph60%29.47 "HgN/A
2:30 PM97 °FPassing clouds.9 mph56%29.50 "HgN/A
2:00 PM95 °FPassing clouds.8 mph60%29.50 "HgN/A
1:30 PM95 °FPassing clouds.8 mph56%29.53 "HgN/A
1:00 PM95 °FPassing clouds.7 mph56%29.53 "HgN/A
12:30 PM95 °FPassing clouds.6 mph56%29.53 "HgN/A
12:00 PM93 °FPassing clouds.7 mph59%29.56 "HgN/A
11:30 AM93 °FPassing clouds.6 mph59%29.56 "HgN/A
11:00 AM91 °FPassing clouds.8 mph63%29.56 "HgN/A
10:30 AM91 °FPassing clouds.7 mph59%29.56 "HgN/A
10:00 AM91 °FPassing clouds.6 mph63%29.59 "HgN/A
9:30 AM90 °FSunny.6 mph67%29.59 "Hg10 mi
9:00 AM90 °FPassing clouds.8 mph67%29.59 "HgN/A
8:30 AM88 °FSunny.9 mph70%29.56 "Hg10 mi
8:00 AM88 °FSunny.8 mph70%29.59 "Hg10 mi
7:30 AM88 °FSunny.9 mph66%29.59 "Hg10 mi
7:00 AM88 °FPassing clouds.9 mph66%29.59 "HgN/A
6:30 AM88 °FSunny.10 mph66%29.56 "Hg10 mi
6:00 AM88 °FPassing clouds.10 mph70%29.56 "HgN/A
5:30 AM86 °FPassing clouds.10 mph75%29.56 "HgN/A
5:00 AM88 °FPassing clouds.12 mph70%29.56 "HgN/A
4:30 AM88 °FPassing clouds.13 mph70%29.56 "HgN/A
4:00 AM88 °FPassing clouds.15 mph70%29.56 "HgN/A
3:30 AM88 °FPassing clouds.16 mph70%29.56 "HgN/A
3:00 AM88 °FPassing clouds.16 mph70%29.56 "HgN/A
2:30 AM88 °FPassing clouds.18 mph70%29.56 "HgN/A
2:00 AM88 °FPassing clouds.18 mph70%29.56 "HgN/A
1:30 AM88 °FPassing clouds.18 mph70%29.56 "HgN/A
1:00 AM88 °FClear.18 mph70%29.59 "Hg10 mi
12:30 AM88 °FClear.15 mph70%29.59 "Hg10 mi
12:00 AM88 °FClear.16 mph66%29.59 "Hg10 mi
11:30 PM
Jul 31
88 °FClear.16 mph66%29.59 "Hg10 mi
11:00 PM90 °FClear.16 mph59%29.59 "Hg10 mi
10:30 PM90 °FClear.15 mph63%29.59 "Hg10 mi
10:00 PM90 °FClear.16 mph55%29.59 "Hg10 mi
9:30 PM90 °FClear.17 mph59%29.56 "Hg10 mi
9:00 PM90 °FClear.15 mph63%29.56 "Hg10 mi
Weather by CustomWeather, © 2014

See weather overviewHow to use our weather pages